TIME,DELAY(SENSOR),PRES,OXYGEN,RAWTEMP,T(OPTODE),TCPHASE,FLUOR,BETA(BETA700),BETA(BETA412),BETA(BETA440),CDOM,C(CSC),ED(ED411.90),ED(ED443.80),ED(ED489.40),ED(ED554.70),LU(LU412.20),LU(LU443.80),LU(LU489.40),LU(LU555.00),COMP,TILTX,TILTY,CHECK
1374103720,5807,818.3200073242188000,133.3715972900390600,453.6209106445312500,8.9616012573242190,42.0504684448242200,56,178,76,73,75,9857,2146963136,2147517238,2147293778,2147506834,2147086848,2146928941,2147704000,2147119488,1302,-1,8,9023
1374107316,5805,922.2299804687500000,158.9759979248047000,506.6383056640625000,7.3234000205993650,40.8313407897949200,56,176,76,73,75,9863,2146963236,2147516763,2147298075,2147509622,2147086052,2146920457,2147719232,2147120009,659,-1,8,21903
1374110916,5806,932.2899780273438000,147.1136932373047000,517.1068725585938000,6.9977731704711910,41.9457206726074200,56,187,76,72,76,9863,2146964013,2147518957,2147299090,2147512905,2147086912,2146922093,2147721682,2147117677,11,0,8,39848
1374114516,5807,958.1900024414062000,132.0746002197265600,527.3779296875000000,6.6775360107421875,43.3853111267089840,56,178,77,72,77,9864,2146962614,2147519862,2147303232,2147519030,2147086811,2146916114,2147723510,2147119954,3255,0,8,44081
1374118116,5808,959.9400024414062000,149.0223999023437500,529.0823974609375000,6.6243190765380860,41.9982185363769500,56,178,77,71,75,9853,2146962834,2147514907,2147299949,2147518162,2147084105,2146922907,2147717220,2147120530,3321,-1,8,54748
1374121716,5806,963.7399902343750000,158.7637939453125000,530.9954833984375000,6.5645618438720700,41.2729187011718750,56,177,77,72,77,9858,2146964781,2147517037,2147301211,2147517467,2147087844,2146918601,2147717814,2147119926,3305,-1,8,5893
1374125316,5805,984.6199951171875000,177.7380981445312500,537.7858886718750000,6.3522419929504395,40.0205497741699200,55,180,76,72,76,9861,2146962038,2147521033,2147299300,2147519140,2147084982,2146913773,2147720914,2147118171,3520,-1,8,10021
1374128916,5803,984.2399902343750000,151.1016998291015600,540.1884155273438000,6.2770352363586430,42.0270118713378900,56,178,77,72,76,9856,2146961444,2147522468,2147302061,2147519250,2147086491,2146915392,2147721920,2147123565,3125,0,8,5690
1374132516,5803,986.8300170898438000,150.0133056640625000,540.5123291015625000,6.2668929100036620,42.1184196472168000,57,179,76,72,76,9860,2146963675,2147521947,2147300973,2147518317,2147085449,2146915382,2147723428,2147122395,3222,-1,8,24353
1374136116,5806,992.5700073242188000,202.3598937988281200,540.2600097656250000,6.2747941017150880,38.4693717956543000,57,181,76,74,76,9853,2146962852,2147520365,2147303021,2147517604,2147085540,2146919634,2147718217,2147119588,3181,-1,8,19916
1374139716,5803,994.0999755859375000,192.8923034667968800,539.9896240234375000,6.2832598686218260,39.0544090270996100,57,182,76,72,76,9858,2146961417,2147518308,2147301092,2147519158,2147085065,2146920173,2147724050,2147120265,3290,-1,8,22425
1374143316,5804,994.0200195312500000,197.6925964355468800,540.3286743164062000,6.2726421356201170,38.7585105895996100,56,181,76,76,76,9859,2146964150,2147520448,2147303314,2147520173,2147086838,2146916096,2147718829,2147119113,3394,-1,8,31861
1374146916,5806,991.3599853515625000,199.0453948974609400,541.3234252929688000,6.2414908409118650,38.6918296813964840,57,186,77,73,75,9856,2146965522,2147519789,2147301238,2147517622,2147085037,2146918427,2147720905,2147120475,3459,0,8,63978
1374150516,5804,993.5499877929688000,198.6324005126953000,542.1561279296875000,6.2154102325439450,38.7323799133300800,57,193,76,73,75,9856,2146964827,2147523044,2147300955,2147518729,2147086848,2146916818,2147724251,2147118400,3307,-1,8,56711
1374154116,5807,990.9400024414062000,192.9268035888672000,542.2371826171875000,6.2128658294677730,39.0932807922363300,57,188,76,73,75,9853,2146962377,2147520813,2147304950,2147519277,2147083894,2146914514,2147720850,2147119552,3084,-1,8,33275
1374157716,5807,989.0800170898438000,201.7337951660156200,543.8574829101562000,6.1620960235595700,38.5721702575683600,56,189,76,75,76,9847,2146966921,2147519058,2147301494,2147524205,2147086939,2146919213,2147724827,2147121810,2956,-1,8,32478
1374161316,5808,995.8400268554688000,215.0774993896484400,543.3814697265625000,6.1770129203796390,37.7723503112793000,57,188,77,73,76,9846,2146963373,2147520274,2147301293,2147521846,2147087616,2146915364,2147724982,2147118820,2859,-1,8,6875
1374164916,5805,986.5599975585938000,204.0205993652343800,544.8551025390625000,6.1308288574218750,38.4514808654785160,57,190,76,72,76,9846,2146963328,2147519606,2147303570,2147521609,2147090422,2146912438,2147725193,2147121472,3503,0,8,6920
1374168516,5804,988.4799804687500000,190.5509948730468800,546.4769287109375000,6.0799770355224610,39.3233299255371100,58,187,77,72,76,9846,2146963328,2147517028,2147302674,2147520530,2147089563,2146910802,2147725622,2147118637,3390,0,8,13866
1374172116,5809,992.0300292968750000,200.7478027343750000,545.3447875976562000,6.1154751777648930,38.6602783203125000,56,189,76,71,76,9847,2146960320,2147517065,2147304466,2147520054,2147090176,2146914925,2147722212,2147119131,151,-1,8,3910
1374175716,5805,992.2899780273438000,206.2872009277343800,544.2398071289062000,6.1501159667968750,38.3037490844726560,57,188,77,72,76,9848,2146963136,2147521526,2147303104,2147520713,2147087360,2146915428,2147726756,2147119113,3436,-1,8,11427
1374179316,5807,988.1400146484375000,192.5207977294922000,545.5520019531250000,6.1089801788330080,39.1795997619628900,57,190,77,72,76,9843,2146959716,2147516278,2147304118,2147522285,2147085979,2146919332,2147723812,2147121033,748,0,8,26331
1374182916,5808,996.9400024414062000,209.1555938720703000,544.9113159179688000,6.1290678977966310,38.1451683044433600,56,189,77,72,76,9845,2146962112,2147517842,2147303817,2147519899,2147087350,2146916434,2147726116,2147118537,27,-1,8,60734
1374186516,5811,998.0300292968750000,216.2937927246093800,544.3272705078125000,6.1473731994628910,37.7200889587402340,56,189,78,73,75,9837,2146964489,2147516406,2147303652,2147519926,2147088009,2146915419,2147720548,2147118921,65,-1,8,59832
1374190116,5808,993.2899780273438000,205.5023040771484400,544.5109863281250000,6.1416149139404300,38.3562011718750000,57,189,77,72,76,9852,2146965970,2147519881,2147306313,2147521142,2147086006,2146914989,2147724525,2147120621,210,-1,8,64200
1374193716,5806,999.3499755859375000,189.7693023681640600,543.4155883789062000,6.1759428977966310,39.3180809020996100,57,190,76,74,76,9847,2146962898,2147520045,2147301321,2147520347,2147088896,2146915136,2147723529,2147122020,3459,-1,8,23116
1374197316,5806,999.6799926757812000,194.4217071533203000,543.2127075195312000,6.1823039054870605,39.0161590576171900,57,191,75,71,76,9846,2146965174,2147519725,2147303177,2147521270,2147087323,2146916251,2147722075,2147122541,126,-1,8,30304
1374200916,5802,1001.8300170898438000,215.8751068115234400,542.5689086914062000,6.2024750709533690,37.7122993469238300,57,192,76,71,75,9845,2146965037,2147520960,2147303716,2147518326,2147086409,2146913609,2147720557,2147121828,3038,-1,8,34168
1374204516,5805,996.5800170898438000,211.5050964355468800,542.8294067382812000,6.1943149566650390,37.9692382812500000,57,192,76,75,75,9840,2146960036,2147519030,2147302619,2147518244,2147086162,2146912740,2147726619,2147118646,2888,-1,8,44994
1374208116,5806,997.0499877929688000,207.7256011962890600,543.0133056640625000,6.1885528564453125,38.1952705383300800,57,192,76,73,75,9846,2146962084,2147519972,2147302390,2147517412,2147086034,2146918765,2147719981,2147120466,2788,-1,8,23242
1374211716,5804,994.6099853515625000,194.0401000976562500,544.3840942382812000,6.1455922126770020,39.0619087219238300,57,192,76,72,76,9834,2146961782,2147516416,2147303204,2147520283,2147086957,2146911296,2147722441,2147119808,3467,-1,8,32059
1374215316,5803,997.1799926757812000,185.4217987060547000,544.4520263671875000,6.1434650421142580,39.6212081909179700,56,193,76,72,75,9838,2146963766,2147519323,2147300818,2147520301,2147086884,2146914331,2147725229,2147119360,3466,-1,8,48134
1374218916,5806,986.4000244140625000,197.4723968505859400,546.6270141601562000,6.0752701759338380,38.8857116699218750,57,195,76,72,76,9841,2146961810,2147520393,2147304329,2147518253,2147088704,2146915794,2147718820,2147119350,3481,-1,8,35394
1374222516,5804,991.1099853515625000,218.0455932617187500,548.4780883789062000,6.0172019004821780,37.6963005065918000,57,195,77,72,76,9838,2146964297,2147519542,2147302317,2147519268,2147085302,2146918418,2147721865,2147122468,3277,-1,8,48417
1374226116,5805,991.9799804687500000,218.1425018310547000,550.0255126953125000,5.9686408042907715,37.7192497253418000,57,194,75,71,76,9837,2146961929,2147522715,2147303104,2147515154,2147085467,2146918134,2147727881,2147120292,3465,-1,8,52330
1374229716,5807,993.0800170898438000,219.2239990234375000,548.2327270507812000,6.0249018669128420,37.6248512268066400,57,195,76,72,75,9838,2146963008,2147519817,2147302098,2147520192,2147085449,2146914176,2147721536,2147121526,166,-1,8,18158
1374233316,5807,991.7100219726562000,210.9313964843750000,548.8270874023438000,6.0062541961669920,38.1119995117187500,56,194,76,72,76,9832,2146965065,2147520841,2147302912,2147518180,2147088036,2146914176,2147722669,2147122496,3350,-1,8,56905
1374236916,5809,993.0700073242188000,218.2554016113281200,548.2606811523438000,6.0240249633789060,37.6801605224609400,57,197,76,72,76,9795,2146962806,2147518134,2147302509,2147518537,2147085476,2146918235,2147724269,2147121060,82,0,8,54896
1374240516,5807,995.8200073242188000,222.9651031494140600,546.4196166992188000,6.0817742347717285,37.3829803466796900,57,196,77,71,76,9796,2146963766,2147519158,2147303597,2147519936,2147088256,2146914688,2147725348,2147119158,122,-1,8,37259
1374242455,5808,1001.5399780273438000,229.4859008789062500,546.1096191406250000,6.0914959907531740,37.0224609375000000,57,198,75,72,75,9845,2146963364,2147520073,2147301668,2147521325,2147087305,2146921051,2147723785,2147118665,139,-1,8,49096
